Regional Weather Roundup
Issued by NWS Jackson, KY

Home | Current Version | Previous Version | Graphics & Text | Print | Product List | Glossary On
Versions: 1 2 3 4 5 6 7 8 9 10 11 12 13 14 15 16 17 18 19 20 21 22 23 24 25 26 27 28 29 30 31 32 33 34 35 36 37 38 39 40 41 42 43 44 45 46 47 48 49 50
000
ASUS43 KJKL 171810
RWRJKL

EAST KENTUCKY HOURLY WEATHER ROUNDUP
NATIONAL WEATHER SERVICE JACKSON KY
200 PM EDT FRI APR 17 2015

NOTE: "FAIR" INDICATES FEW OR NO CLOUDS BELOW 12,000 FEET WITH
NO SIGNIFICANT WEATHER AND/OR OBSTRUCTIONS TO VISIBILITY.

* THESE REPORTS ARE NOT UNDER NWS QUALITY CONTROL AND MAY NOT
  REPORT WEATHER SUCH AS PRECIPITATION AND FOG.

KYZ079-080-083-085-087-088-110-112-115-119-120-171900
...EASTERN KENTUCKY...

CITY           SKY/WX    TMP DP  RH WIND       PRES   REMARKS
JACKSON        CLOUDY    69  56  62 CALM      30.11F
6HR MIN TEMP:  58; 6HR MAX TEMP:  71; 6HR PCP: TRACE;

LONDON         MOSUNNY   70  55  59 SW5       30.10F
6HR MIN TEMP:  58; 6HR MAX TEMP:  70;

SOMERSET*      CLOUDY    68  57  68 N6        30.11F
MONTICELLO*    CLOUDY    70  61  73 N5        30.13F
6HR MIN TEMP:  58; 6HR MAX TEMP:  71;

MIDDLESBORO*   MOSUNNY   72  58  62 CALM      30.10F
6HR MIN TEMP:  57; 6HR MAX TEMP:  72;

HARLAN APT*    MOCLDY    73  52  46 W5        30.09F
HAZARD APT*    MOCLDY    70  57  64 CALM      30.10F
BLACK MTN*       N/A     63  54  72 CALM        N/A
PIKEVILLE APT* CLOUDY    68  57  68 SW3       30.11F
BIG SANDY*     CLOUDY    71  58  64 CALM      30.11F
6HR MIN TEMP:  58; 6HR MAX TEMP:  71;

MOREHEAD APT*  MOCLDY    72  59  64 CALM      30.12F
$$

KYZ035-036-041-042-044-050-067-078-099-171900
...CENTRAL KENTUCKY...

CITY           SKY/WX    TMP DP  RH WIND       PRES   REMARKS
MT STERLING*   CLOUDY    70  61  73 CALM      30.12F
FLEMING/MASON* PTSUNNY   70  59  68 CALM      30.10F
DANVILLE*      CLOUDY    68  59  73 CALM      30.11F
RICHMOND*      PTSUNNY   68  59  73 W3        30.10F
LEXINGTON      CLOUDY    71  60  68 CALM      30.10F
6HR MIN TEMP:  59; 6HR MAX TEMP:  72;

FRANKFORT      CLOUDY    71  57  61 E3        30.08F
6HR MIN TEMP:  60; 6HR MAX TEMP:  72;

$$

KYZ091>093-OHZ055-061-077-WVZ005-015-034-035-042-171900
...SOUTHERN OHIO/WEST VIRGINIA...

CITY           SKY/WX    TMP DP  RH WIND       PRES   REMARKS
COVINGTON      PTSUNNY   71  51  49 CALM      30.09F
COLUMBUS       MOSUNNY   71  50  47 N5        30.07F
DAYTON         MOSUNNY   72  46  39 CALM      30.09F
WILMINGTON     SUNNY     69  47  45 N6        30.09F
HUNTINGTON     CLOUDY    69  59  70 N9        30.08F
CHARLESTON     PTSUNNY   71  57  61 W7        30.08F
PINEVILLE*     PTSUNNY   74  56  53 MISG      30.14F
BECKLEY        PTSUNNY   69  52  54 N6        30.12F
BLUEFIELD      PTSUNNY   73  51  46 SW7       30.13F
$$

VAZ002-007-008-TNZ017-027-036-066-071-171900
...SOUTHWEST VIRGINIA/EAST TENNESSEE...

CITY           SKY/WX    TMP DP  RH WIND       PRES   REMARKS
WISE*          CLOUDY    70  52  52 CALM      30.15F
JONESVILLE*    CLOUDY    70  57  64 CALM      30.12F
ABINGDON*      PTSUNNY   73  55  53 W7        30.12F
BRISTOL        PTSUNNY   71  58  63 CALM      30.11F
KNOXVILLE      CLOUDY    68  59  73 NE5       30.09F
OAK RIDGE      CLOUDY    70  58  65 S6        30.10F
CROSSVILLE     CLOUDY    69  57  65 E3        30.10F
NASHVILLE      CLOUDY    66  59  77 CALM      30.10F
$$

...KEY TO REMARKS...
VSB - VISIBILITY IN MILES
WCI - WIND CHILL INDEX
HX  - HEAT INDEX

$$



USA.gov is the U.S. government's official web portal to all federal, state and local government web resources and services.